CMP460 MPTO-MROC

Flight info

Callsign CMP460
Flight time 0h 50m
Altitude 34000
Route PUDOS DCT ISEBA CUARE4I
Aircraft B38M/M-SDE1FGHILORVWXY/HB1

Departure

Time 2026-04-28 02:46
Airport Tocumen International Airport (MPTO)

Arrival

Time 2026-04-28 03:37
Airport Juan Santamaría International Airport (MROC)
Time Latitude Longitude Altitude Speed Heading
2026-04-28 02:33 9.06711 -79.38562 32 ft 0 kts 300°
2026-04-28 02:37 9.06696 -79.38535 33 ft 5 kts 300°
2026-04-28 02:37 9.06678 -79.38505 33 ft 5 kts 302°
2026-04-28 02:37 9.06660 -79.38480 33 ft 4 kts 315°
2026-04-28 02:37 9.06646 -79.38471 33 ft 2 kts 355°
2026-04-28 02:38 9.06633 -79.38473 33 ft 2 kts 22°
2026-04-28 02:38 9.06623 -79.38477 33 ft 2 kts 26°
2026-04-28 02:38 9.06623 -79.38478 32 ft 0 kts 26°
2026-04-28 02:41 9.06630 -79.38474 32 ft 1 kts 26°
2026-04-28 02:41 9.06661 -79.38459 32 ft 9 kts 26°
2026-04-28 02:41 9.06743 -79.38415 32 ft 17 kts 26°
2026-04-28 02:41 9.06870 -79.38386 32 ft 20 kts 329°
2026-04-28 02:42 9.06958 -79.38459 33 ft 16 kts
2026-04-28 02:42 9.07064 -79.38406 33 ft 18 kts 28°
2026-04-28 02:42 9.07184 -79.38352 33 ft 20 kts
2026-04-28 02:42 9.07268 -79.38429 34 ft 17 kts 300°
2026-04-28 02:43 9.07324 -79.38538 37 ft 17 kts 298°
2026-04-28 02:43 9.07372 -79.38625 49 ft 10 kts 299°
2026-04-28 02:43 9.07422 -79.38646 51 ft 8 kts 27°
2026-04-28 02:43 9.07429 -79.38642 49 ft 0 kts 29°
2026-04-28 02:45 9.07430 -79.38642 50 ft 0 kts 29°
2026-04-28 02:45 9.07431 -79.38641 50 ft 0 kts 29°
2026-04-28 02:46 9.07682 -79.38490 52 ft 89 kts 31°
2026-04-28 02:46 9.08460 -79.38022 75 ft 165 kts 30°
2026-04-28 02:46 9.09544 -79.37368 791 ft 173 kts 29°
2026-04-28 02:46 9.10475 -79.36811 2338 ft 150 kts 30°
2026-04-28 02:47 9.11505 -79.36376 2910 ft 175 kts
2026-04-28 02:47 9.12740 -79.36692 3439 ft 200 kts 327°
2026-04-28 02:47 9.13707 -79.37821 3978 ft 228 kts 301°
2026-04-28 02:47 9.14268 -79.39411 4629 ft 253 kts 278°
2026-04-28 02:48 9.14439 -79.41249 5411 ft 271 kts 277°
2026-04-28 02:48 9.14674 -79.43190 6321 ft 281 kts 279°
2026-04-28 02:48 9.14914 -79.45179 7341 ft 286 kts 278°
2026-04-28 02:48 9.15156 -79.47195 8339 ft 291 kts 278°
2026-04-28 02:49 9.15402 -79.49244 9340 ft 296 kts 278°
2026-04-28 02:49 9.15651 -79.51333 10276 ft 302 kts 278°
2026-04-28 02:49 9.15914 -79.53506 10873 ft 320 kts 278°
2026-04-28 02:49 9.16190 -79.55766 11479 ft 334 kts 278°
2026-04-28 02:50 9.16476 -79.58125 12310 ft 338 kts 277°
2026-04-28 02:50 9.16757 -79.60493 13189 ft 341 kts 276°
2026-04-28 02:50 9.17041 -79.62900 13988 ft 344 kts 277°
2026-04-28 02:50 9.17332 -79.65314 14725 ft 349 kts 277°
2026-04-28 02:51 9.17627 -79.67771 15419 ft 353 kts 277°
2026-04-28 02:51 9.17923 -79.70252 16114 ft 357 kts 277°
2026-04-28 02:51 9.18221 -79.72765 16798 ft 362 kts 278°
2026-04-28 02:51 9.18524 -79.75312 17428 ft 367 kts 278°
2026-04-28 02:52 9.18830 -79.77886 18129 ft 370 kts 277°
2026-04-28 02:52 9.19138 -79.80479 18684 ft 373 kts 277°
2026-04-28 02:52 9.19448 -79.83098 19298 ft 375 kts 277°
2026-04-28 02:52 9.19756 -79.85694 19848 ft 378 kts 277°
2026-04-28 02:53 9.20069 -79.88335 20431 ft 379 kts 277°
2026-04-28 02:53 9.20385 -79.90996 21008 ft 382 kts 277°
2026-04-28 02:53 9.20702 -79.93679 21586 ft 383 kts 276°
2026-04-28 02:53 9.21020 -79.96364 22127 ft 386 kts 276°
2026-04-28 02:54 9.21341 -79.99076 22633 ft 389 kts 276°
2026-04-28 02:54 9.21664 -80.01814 23166 ft 392 kts 276°
2026-04-28 02:54 9.21990 -80.04572 23657 ft 395 kts 276°
2026-04-28 02:54 9.22312 -80.07306 24084 ft 398 kts 276°
2026-04-28 02:55 9.22640 -80.10094 24500 ft 401 kts 275°
2026-04-28 02:55 9.22970 -80.12897 24922 ft 403 kts 275°
2026-04-28 02:55 9.23304 -80.15733 25342 ft 406 kts 275°
2026-04-28 02:55 9.23640 -80.18587 25762 ft 409 kts 275°
2026-04-28 02:56 9.23977 -80.21454 26172 ft 411 kts 275°
2026-04-28 02:56 9.24316 -80.24337 26583 ft 414 kts 274°
2026-04-28 02:56 9.24657 -80.27246 26993 ft 417 kts 274°
2026-04-28 02:56 9.24999 -80.30161 27382 ft 419 kts 274°
2026-04-28 02:57 9.25344 -80.33107 27782 ft 422 kts 274°
2026-04-28 02:57 9.25691 -80.36066 28174 ft 424 kts 274°
2026-04-28 02:57 9.26035 -80.39008 28551 ft 427 kts 274°
2026-04-28 02:57 9.26385 -80.42003 28919 ft 430 kts 273°
2026-04-28 02:58 9.26737 -80.45014 29288 ft 432 kts 273°
2026-04-28 02:58 9.27091 -80.48048 29652 ft 435 kts 273°
2026-04-28 02:58 9.27448 -80.51105 30010 ft 437 kts 273°
2026-04-28 02:58 9.27806 -80.54165 30313 ft 440 kts 273°
2026-04-28 02:59 9.28165 -80.57245 30670 ft 440 kts 273°
2026-04-28 02:59 9.28524 -80.60327 30993 ft 442 kts 273°
2026-04-28 02:59 9.28886 -80.63439 31293 ft 444 kts 273°
2026-04-28 02:59 9.29247 -80.66545 31592 ft 446 kts 273°
2026-04-28 03:00 9.29611 -80.69680 31895 ft 448 kts 274°
2026-04-28 03:00 9.29975 -80.72825 32202 ft 450 kts 274°
2026-04-28 03:00 9.30337 -80.75943 32468 ft 453 kts 274°
2026-04-28 03:00 9.30704 -80.79113 32752 ft 455 kts 274°
2026-04-28 03:01 9.31073 -80.82300 33040 ft 457 kts 274°
2026-04-28 03:01 9.31442 -80.85493 33359 ft 458 kts 274°
2026-04-28 03:01 9.31812 -80.88698 33749 ft 457 kts 274°
2026-04-28 03:01 9.32181 -80.91899 33977 ft 459 kts 274°
2026-04-28 03:02 9.32554 -80.95121 33988 ft 465 kts 274°
2026-04-28 03:02 9.33308 -81.01659 33978 ft 467 kts 274°
2026-04-28 03:03 9.34061 -81.08210 33974 ft 467 kts 274°
2026-04-28 03:03 9.34812 -81.14746 33973 ft 467 kts 274°
2026-04-28 03:04 9.35562 -81.21284 33986 ft 466 kts 274°
2026-04-28 03:04 9.36300 -81.27741 33981 ft 465 kts 274°
2026-04-28 03:05 9.37040 -81.34222 33976 ft 461 kts 275°
2026-04-28 03:05 9.37776 -81.40672 33979 ft 461 kts 275°
2026-04-28 03:06 9.38510 -81.47124 33982 ft 461 kts 275°
2026-04-28 03:06 9.39243 -81.53569 33976 ft 461 kts 275°
2026-04-28 03:07 9.39975 -81.60024 33976 ft 461 kts 275°
2026-04-28 03:07 9.40706 -81.66475 33978 ft 460 kts 275°
2026-04-28 03:08 9.41430 -81.72878 33980 ft 455 kts 275°
2026-04-28 03:08 9.42149 -81.79247 33981 ft 455 kts 275°
2026-04-28 03:09 9.42862 -81.85572 33978 ft 455 kts 275°
2026-04-28 03:09 9.43580 -81.91944 33981 ft 456 kts 275°
2026-04-28 03:10 9.44422 -81.98306 33985 ft 456 kts 277°
2026-04-28 03:10 9.45358 -82.04663 33982 ft 456 kts 276°
2026-04-28 03:11 9.46282 -82.11027 33979 ft 456 kts 276°
2026-04-28 03:11 9.47203 -82.17381 33979 ft 456 kts 276°
2026-04-28 03:12 9.48124 -82.23747 33981 ft 456 kts 276°
2026-04-28 03:12 9.49037 -82.30063 33983 ft 456 kts 276°
2026-04-28 03:13 9.49953 -82.36413 33986 ft 456 kts 276°
2026-04-28 03:13 9.50868 -82.42765 33988 ft 455 kts 276°
2026-04-28 03:14 9.51783 -82.49120 33983 ft 455 kts 276°
2026-04-28 03:14 9.52694 -82.55458 33990 ft 455 kts 276°
2026-04-28 03:15 9.53607 -82.61817 33999 ft 455 kts 276°
2026-04-28 03:15 9.54511 -82.68122 33998 ft 455 kts 276°
2026-04-28 03:16 9.55419 -82.74465 34003 ft 455 kts 276°
2026-04-28 03:16 9.56326 -82.80807 34007 ft 453 kts 276°
2026-04-28 03:17 9.57228 -82.87124 34019 ft 453 kts 276°
2026-04-28 03:17 9.58573 -82.96554 34012 ft 453 kts 276°
2026-04-28 03:18 9.59471 -83.02866 34033 ft 453 kts 276°
2026-04-28 03:18 9.60369 -83.09184 34041 ft 452 kts 276°
2026-04-28 03:19 9.61265 -83.15495 34039 ft 453 kts 276°
2026-04-28 03:19 9.62156 -83.21778 34049 ft 449 kts 276°
2026-04-28 03:20 9.63043 -83.28043 34047 ft 449 kts 276°
2026-04-28 03:20 9.63931 -83.34323 34069 ft 449 kts 276°
2026-04-28 03:21 9.64367 -83.37414 33693 ft 440 kts 276°
2026-04-28 03:21 9.64801 -83.40483 32990 ft 439 kts 276°
2026-04-28 03:21 9.65233 -83.43549 32171 ft 442 kts 276°
2026-04-28 03:21 9.65671 -83.46656 31270 ft 447 kts 276°
2026-04-28 03:22 9.66108 -83.49756 30348 ft 452 kts 275°
2026-04-28 03:22 9.66555 -83.52931 29202 ft 459 kts 276°
2026-04-28 03:22 9.67009 -83.56157 28050 ft 463 kts 276°
2026-04-28 03:22 9.67467 -83.59413 26924 ft 468 kts 276°
2026-04-28 03:23 9.67928 -83.62692 25784 ft 472 kts 276°
2026-04-28 03:23 9.68394 -83.66015 24541 ft 481 kts 277°
2026-04-28 03:23 9.68868 -83.69389 23696 ft 481 kts 277°
2026-04-28 03:23 9.69334 -83.72717 22979 ft 474 kts 277°
2026-04-28 03:24 9.69791 -83.75979 22059 ft 461 kts 277°
2026-04-28 03:24 9.70239 -83.79181 20764 ft 456 kts 278°
2026-04-28 03:24 9.70683 -83.82345 19544 ft 451 kts 278°
2026-04-28 03:24 9.71116 -83.85447 18421 ft 446 kts 278°
2026-04-28 03:25 9.71549 -83.88550 17179 ft 441 kts 279°
2026-04-28 03:25 9.71975 -83.91606 16034 ft 434 kts 279°
2026-04-28 03:25 9.72394 -83.94609 14979 ft 426 kts 279°
2026-04-28 03:25 9.72806 -83.97560 13991 ft 419 kts 279°
2026-04-28 03:26 9.73210 -84.00462 12996 ft 411 kts 278°
2026-04-28 03:26 9.73595 -84.03235 12853 ft 383 kts 278°
2026-04-28 03:26 9.73955 -84.05819 12772 ft 356 kts 279°
2026-04-28 03:26 9.74292 -84.08236 12532 ft 337 kts 279°
2026-04-28 03:27 9.74610 -84.10525 12303 ft 320 kts 279°
2026-04-28 03:27 9.74913 -84.12706 12117 ft 304 kts 279°
2026-04-28 03:27 9.75197 -84.14754 11942 ft 293 kts 279°
2026-04-28 03:27 9.75479 -84.16776 11790 ft 286 kts 279°
2026-04-28 03:28 9.75750 -84.18727 11618 ft 272 kts 279°
2026-04-28 03:28 9.76006 -84.20579 11484 ft 261 kts 279°
2026-04-28 03:28 9.76254 -84.22371 11328 ft 253 kts 279°
2026-04-28 03:28 9.76496 -84.24110 11194 ft 245 kts 279°
2026-04-28 03:29 9.76956 -84.25738 10980 ft 237 kts 301°
2026-04-28 03:29 9.77983 -84.26971 10696 ft 224 kts 322°
2026-04-28 03:29 9.79175 -84.27932 10424 ft 215 kts 322°
2026-04-28 03:29 9.80304 -84.28886 10149 ft 208 kts 323°
2026-04-28 03:30 9.81393 -84.29814 9844 ft 201 kts 321°
2026-04-28 03:30 9.82440 -84.30714 9534 ft 193 kts 321°
2026-04-28 03:30 9.83448 -84.31587 9226 ft 191 kts 321°
2026-04-28 03:30 9.84469 -84.32473 9023 ft 195 kts 321°
2026-04-28 03:31 9.85505 -84.33370 8708 ft 196 kts 321°
2026-04-28 03:31 9.86551 -84.34277 8271 ft 200 kts 321°
2026-04-28 03:31 9.87623 -84.35208 7776 ft 205 kts 321°
2026-04-28 03:31 9.88717 -84.36159 7272 ft 210 kts 321°
2026-04-28 03:32 9.89828 -84.37125 6767 ft 214 kts 321°
2026-04-28 03:32 9.91125 -84.37860 6169 ft 211 kts 350°
2026-04-28 03:32 9.92495 -84.37775 5912 ft 194 kts 23°
2026-04-28 03:32 9.93507 -84.36978 5778 ft 179 kts 58°
2026-04-28 03:33 9.93878 -84.35862 5609 ft 159 kts 76°
2026-04-28 03:33 9.94078 -84.35144 5540 ft 156 kts 71°
2026-04-28 03:33 9.94558 -84.33768 5310 ft 156 kts 69°
2026-04-28 03:33 9.94940 -84.32741 5124 ft 155 kts 68°
2026-04-28 03:34 9.95196 -84.32060 4990 ft 155 kts 68°
2026-04-28 03:34 9.95579 -84.31037 4799 ft 155 kts 68°
2026-04-28 03:34 9.95961 -84.30017 4595 ft 154 kts 68°
2026-04-28 03:34 9.96341 -84.29004 4399 ft 154 kts 68°
2026-04-28 03:35 9.96721 -84.27989 4238 ft 154 kts 68°
2026-04-28 03:35 9.97100 -84.26975 4041 ft 152 kts 69°
2026-04-28 03:35 9.97483 -84.25962 3809 ft 154 kts 68°
2026-04-28 03:35 9.97867 -84.24942 3585 ft 154 kts 69°
2026-04-28 03:36 9.98246 -84.23949 3375 ft 151 kts 69°
2026-04-28 03:36 9.98611 -84.22963 3156 ft 147 kts 69°
2026-04-28 03:36 9.98967 -84.22008 2962 ft 140 kts 69°
2026-04-28 03:36 9.99259 -84.21239 3000 ft 84 kts 69°
2026-04-28 03:37 9.99449 -84.20734 3034 ft 72 kts 69°
2026-04-28 03:37 9.99567 -84.20447 3040 ft 13 kts 34°
2026-04-28 03:37 9.99634 -84.20475 3036 ft 8 kts 264°
2026-04-28 03:37 9.99626 -84.20523 3038 ft 2 kts 294°
2026-04-28 03:38 9.99638 -84.20538 3036 ft 4 kts 312°
2026-04-28 03:38 9.99660 -84.20550 3038 ft 4 kts 340°
2026-04-28 03:38 9.99690 -84.20562 3037 ft 0 kts 339°